Year,Month,Day,Hour,Minute,Value (Times are PST for temperature in C)
2016,04,09,00,00,8.40
2016,04,09,00,01,8.40
2016,04,09,00,02,8.40
2016,04,09,00,03,8.30
2016,04,09,00,04,8.30
2016,04,09,00,05,8.20
2016,04,09,00,06,8.20
2016,04,09,00,07,8.10
2016,04,09,00,08,8.10
2016,04,09,00,09,8.10
2016,04,09,00,10,8.00
2016,04,09,00,11,8.00
2016,04,09,00,12,7.90
2016,04,09,00,13,7.90
2016,04,09,00,14,7.80
2016,04,09,00,15,7.80
2016,04,09,00,16,7.70
2016,04,09,00,17,7.70
2016,04,09,00,18,7.70
2016,04,09,00,19,7.70
2016,04,09,00,20,7.60
2016,04,09,00,21,7.60
2016,04,09,00,22,7.60
2016,04,09,00,23,7.60
2016,04,09,00,24,7.60
2016,04,09,00,25,7.60
2016,04,09,00,26,7.50
2016,04,09,00,27,7.50
2016,04,09,00,28,7.50
2016,04,09,00,29,7.50
2016,04,09,00,30,7.50
2016,04,09,00,31,7.50
2016,04,09,00,32,7.50
2016,04,09,00,33,7.50
2016,04,09,00,34,7.50
2016,04,09,00,35,7.50
2016,04,09,00,36,7.50
2016,04,09,00,37,7.50
2016,04,09,00,38,7.60
2016,04,09,00,39,7.60
2016,04,09,00,40,7.70
2016,04,09,00,41,7.70
2016,04,09,00,42,7.70
2016,04,09,00,43,7.80
2016,04,09,00,44,7.80
2016,04,09,00,45,7.80
2016,04,09,00,46,7.80
2016,04,09,00,47,7.80
2016,04,09,00,48,7.70
2016,04,09,00,49,7.70
2016,04,09,00,50,7.70
2016,04,09,00,51,7.70
2016,04,09,00,52,7.60
2016,04,09,00,53,7.60
2016,04,09,00,54,7.60
2016,04,09,00,55,7.60
2016,04,09,00,56,7.50
2016,04,09,00,57,7.50
2016,04,09,00,58,7.40
2016,04,09,00,59,7.40
2016,04,09,01,00,7.30
2016,04,09,01,01,7.30
2016,04,09,01,02,7.20
2016,04,09,01,03,7.10
2016,04,09,01,04,7.10
2016,04,09,01,05,7.00
2016,04,09,01,06,7.00
2016,04,09,01,07,6.90
2016,04,09,01,08,6.90
2016,04,09,01,09,6.90
2016,04,09,01,10,6.90
2016,04,09,01,11,6.90
2016,04,09,01,12,6.90
2016,04,09,01,13,6.90
2016,04,09,01,14,7.00
2016,04,09,01,15,7.00
2016,04,09,01,16,7.10
2016,04,09,01,17,7.10
2016,04,09,01,18,7.10
2016,04,09,01,19,7.20
2016,04,09,01,20,7.20
2016,04,09,01,21,7.20
2016,04,09,01,22,7.20
2016,04,09,01,23,7.20
2016,04,09,01,24,7.10
2016,04,09,01,25,7.10
2016,04,09,01,26,7.10
2016,04,09,01,27,7.10
2016,04,09,01,28,7.00
2016,04,09,01,29,7.00
2016,04,09,01,30,7.00
2016,04,09,01,31,7.00
2016,04,09,01,32,7.00
2016,04,09,01,33,7.00
2016,04,09,01,34,6.90
2016,04,09,01,35,6.90
2016,04,09,01,36,6.90
2016,04,09,01,37,6.90
2016,04,09,01,38,6.80
2016,04,09,01,39,6.80
2016,04,09,01,40,6.80
2016,04,09,01,41,6.70
2016,04,09,01,42,6.70
2016,04,09,01,43,6.70
2016,04,09,01,44,6.60
2016,04,09,01,45,6.50
2016,04,09,01,46,6.50
2016,04,09,01,47,6.50
2016,04,09,01,48,6.40
2016,04,09,01,49,6.40
2016,04,09,01,50,6.40
2016,04,09,01,51,6.40
2016,04,09,01,52,6.40
2016,04,09,01,53,6.50
2016,04,09,01,54,6.60
2016,04,09,01,55,6.60
2016,04,09,01,56,6.70
2016,04,09,01,57,6.70
2016,04,09,01,58,6.70
2016,04,09,01,59,6.70
2016,04,09,02,00,6.70
2016,04,09,02,01,6.70
2016,04,09,02,02,6.70
2016,04,09,02,03,6.80
2016,04,09,02,04,6.80
2016,04,09,02,05,6.90
2016,04,09,02,06,6.90
2016,04,09,02,07,6.90
2016,04,09,02,08,6.80
2016,04,09,02,09,6.80
2016,04,09,02,10,6.80
2016,04,09,02,11,6.70
2016,04,09,02,12,6.70
2016,04,09,02,13,6.70
2016,04,09,02,14,6.60
2016,04,09,02,15,6.60
2016,04,09,02,16,6.50
2016,04,09,02,17,6.40
2016,04,09,02,18,6.40
2016,04,09,02,19,6.40
2016,04,09,02,20,6.30
2016,04,09,02,21,6.20
2016,04,09,02,22,6.20
2016,04,09,02,23,6.20
2016,04,09,02,24,6.10
2016,04,09,02,25,6.10
2016,04,09,02,26,6.10
2016,04,09,02,27,6.00
2016,04,09,02,28,6.00
2016,04,09,02,29,5.90
2016,04,09,02,30,5.90
2016,04,09,02,31,5.90
2016,04,09,02,32,5.80
2016,04,09,02,33,5.80
2016,04,09,02,34,5.80
2016,04,09,02,35,5.80
2016,04,09,02,36,5.80
2016,04,09,02,37,5.80
2016,04,09,02,38,5.80
2016,04,09,02,39,5.80
2016,04,09,02,40,5.70
2016,04,09,02,41,5.70
2016,04,09,02,42,5.70
2016,04,09,02,43,5.70
2016,04,09,02,44,5.70
2016,04,09,02,45,5.70
2016,04,09,02,46,5.70
2016,04,09,02,47,5.70
2016,04,09,02,48,5.70
2016,04,09,02,49,5.70
2016,04,09,02,50,5.60
2016,04,09,02,51,5.60
2016,04,09,02,52,5.60
2016,04,09,02,53,5.60
2016,04,09,02,54,5.60
2016,04,09,02,55,5.60
2016,04,09,02,56,5.60
2016,04,09,02,57,5.60
2016,04,09,02,58,5.60
2016,04,09,02,59,5.60
2016,04,09,03,00,5.60
2016,04,09,03,01,5.60
2016,04,09,03,02,5.60
2016,04,09,03,03,5.60
2016,04,09,03,04,5.60
2016,04,09,03,05,5.60
2016,04,09,03,06,5.60
2016,04,09,03,07,5.60
2016,04,09,03,08,5.70
2016,04,09,03,09,5.70
2016,04,09,03,10,5.70
2016,04,09,03,11,5.70
2016,04,09,03,12,5.70
2016,04,09,03,13,5.70
2016,04,09,03,14,5.70
2016,04,09,03,15,5.70
2016,04,09,03,16,5.70
2016,04,09,03,17,5.70
2016,04,09,03,18,5.60
2016,04,09,03,19,5.60
2016,04,09,03,20,5.60
2016,04,09,03,21,5.60
2016,04,09,03,22,5.50
2016,04,09,03,23,5.50
2016,04,09,03,24,5.40
2016,04,09,03,25,5.40
2016,04,09,03,26,5.30
2016,04,09,03,27,5.30
2016,04,09,03,28,5.30
2016,04,09,03,29,5.20
2016,04,09,03,30,5.10
2016,04,09,03,31,5.10
2016,04,09,03,32,5.10
2016,04,09,03,33,5.00
2016,04,09,03,34,5.00
2016,04,09,03,35,4.90
2016,04,09,03,36,4.90
2016,04,09,03,37,4.90
2016,04,09,03,38,4.90
2016,04,09,03,39,4.90
2016,04,09,03,40,4.90
2016,04,09,03,41,4.90
2016,04,09,03,42,5.00
2016,04,09,03,43,5.00
2016,04,09,03,44,5.00
2016,04,09,03,45,5.00
2016,04,09,03,46,4.90
2016,04,09,03,47,4.90
2016,04,09,03,48,4.90
2016,04,09,03,49,4.90
2016,04,09,03,50,4.90
2016,04,09,03,51,4.80
2016,04,09,03,52,4.80
2016,04,09,03,53,4.80
2016,04,09,03,54,4.80
2016,04,09,03,55,4.70
2016,04,09,03,56,4.70
2016,04,09,03,57,4.70
2016,04,09,03,58,4.70
2016,04,09,03,59,4.70
2016,04,09,04,00,4.60
2016,04,09,04,01,4.60
2016,04,09,04,02,4.60
2016,04,09,04,03,4.60
2016,04,09,04,04,4.60
2016,04,09,04,05,4.60
2016,04,09,04,06,4.60
2016,04,09,04,07,4.60
2016,04,09,04,08,4.70
2016,04,09,04,09,4.70
2016,04,09,04,10,4.80
2016,04,09,04,11,4.80
2016,04,09,04,12,4.80
2016,04,09,04,13,4.90
2016,04,09,04,14,5.00
2016,04,09,04,15,5.00
2016,04,09,04,16,5.10
2016,04,09,04,17,5.10
2016,04,09,04,18,5.10
2016,04,09,04,19,5.20
2016,04,09,04,20,5.20
2016,04,09,04,21,5.30
2016,04,09,04,22,5.30
2016,04,09,04,23,5.30
2016,04,09,04,24,5.30
2016,04,09,04,25,5.30
2016,04,09,04,26,5.30
2016,04,09,04,27,5.40
2016,04,09,04,28,5.40
2016,04,09,04,29,5.40
2016,04,09,04,30,5.40
2016,04,09,04,31,5.40
2016,04,09,04,32,5.40
2016,04,09,04,33,5.40
2016,04,09,04,34,5.30
2016,04,09,04,35,5.30
2016,04,09,04,36,5.30
2016,04,09,04,37,5.20
2016,04,09,04,38,5.20
2016,04,09,04,39,5.10
2016,04,09,04,40,5.10
2016,04,09,04,41,5.10
2016,04,09,04,42,5.00
2016,04,09,04,43,5.00
2016,04,09,04,44,5.00
2016,04,09,04,45,5.00
2016,04,09,04,46,4.90
2016,04,09,04,47,4.90
2016,04,09,04,48,4.90
2016,04,09,04,49,4.90
2016,04,09,04,50,4.90
2016,04,09,04,51,4.90
2016,04,09,04,52,4.80
2016,04,09,04,53,4.80
2016,04,09,04,54,4.80
2016,04,09,04,55,4.80
2016,04,09,04,56,4.80
2016,04,09,04,57,4.70
2016,04,09,04,58,4.70
2016,04,09,04,59,4.70
2016,04,09,05,00,4.70
2016,04,09,05,01,4.60
2016,04,09,05,02,4.60
2016,04,09,05,03,4.50
2016,04,09,05,04,4.50
2016,04,09,05,05,4.50
2016,04,09,05,06,4.40
2016,04,09,05,07,4.40
2016,04,09,05,08,4.30
2016,04,09,05,09,4.30
2016,04,09,05,10,4.30
2016,04,09,05,11,4.30
2016,04,09,05,12,4.30
2016,04,09,05,13,4.30
2016,04,09,05,14,4.30
2016,04,09,05,15,4.40
2016,04,09,05,16,4.40
2016,04,09,05,17,4.40
2016,04,09,05,18,4.40
2016,04,09,05,19,4.40
2016,04,09,05,20,4.40
2016,04,09,05,21,4.40
2016,04,09,05,22,4.40
2016,04,09,05,23,4.50
2016,04,09,05,24,4.50
2016,04,09,05,25,4.50
2016,04,09,05,26,4.50
2016,04,09,05,27,4.60
2016,04,09,05,28,4.60
2016,04,09,05,29,4.60
2016,04,09,05,30,4.60
2016,04,09,05,31,4.60
2016,04,09,05,32,4.60
2016,04,09,05,33,4.50
2016,04,09,05,34,4.50
2016,04,09,05,35,4.50
2016,04,09,05,36,4.50
2016,04,09,05,37,4.40
2016,04,09,05,38,4.40
2016,04,09,05,39,4.40
2016,04,09,05,40,4.40
2016,04,09,05,41,4.30
2016,04,09,05,42,4.30
2016,04,09,05,43,4.30
2016,04,09,05,44,4.30
2016,04,09,05,45,4.30
2016,04,09,05,46,4.20
2016,04,09,05,47,4.20
2016,04,09,05,48,4.20
2016,04,09,05,49,4.20
2016,04,09,05,50,4.30
2016,04,09,05,51,4.30
2016,04,09,05,52,4.30
2016,04,09,05,53,4.30
2016,04,09,05,54,4.40
2016,04,09,05,55,4.40
2016,04,09,05,56,4.40
2016,04,09,05,57,4.40
2016,04,09,05,58,4.40
2016,04,09,05,59,4.50
2016,04,09,06,00,4.50
2016,04,09,06,01,4.60
2016,04,09,06,02,4.70
2016,04,09,06,03,4.70
2016,04,09,06,04,4.80
2016,04,09,06,05,4.80
2016,04,09,06,06,4.80
2016,04,09,06,07,4.80
2016,04,09,06,08,4.90
2016,04,09,06,09,4.90
2016,04,09,06,10,4.90
2016,04,09,06,11,4.90
2016,04,09,06,12,5.00
2016,04,09,06,13,5.00
2016,04,09,06,14,5.10
2016,04,09,06,15,5.10
2016,04,09,06,16,5.00
2016,04,09,06,17,5.00
2016,04,09,06,18,5.00
2016,04,09,06,19,4.90
2016,04,09,06,20,4.90
2016,04,09,06,21,4.80
2016,04,09,06,22,4.70
2016,04,09,06,23,4.70
2016,04,09,06,24,4.70
2016,04,09,06,25,4.70
2016,04,09,06,26,4.80
2016,04,09,06,27,4.80
2016,04,09,06,28,4.70
2016,04,09,06,29,4.70
2016,04,09,06,30,4.70
2016,04,09,06,31,4.60
2016,04,09,06,32,4.60
2016,04,09,06,33,4.60
2016,04,09,06,34,4.60
2016,04,09,06,35,4.60
2016,04,09,06,36,4.60
2016,04,09,06,37,4.60
2016,04,09,06,38,4.60
2016,04,09,06,39,4.60
2016,04,09,06,40,4.60
2016,04,09,06,41,4.60
2016,04,09,06,42,4.50
2016,04,09,06,43,4.50
2016,04,09,06,44,4.40
2016,04,09,06,45,4.40
2016,04,09,06,46,4.40
2016,04,09,06,47,4.30
2016,04,09,06,48,4.30
2016,04,09,06,49,4.30
2016,04,09,06,50,4.30
2016,04,09,06,51,4.40
2016,04,09,06,52,4.40
2016,04,09,06,53,4.40
2016,04,09,06,54,4.40
2016,04,09,06,55,4.40
2016,04,09,06,56,4.40
2016,04,09,06,57,4.30
2016,04,09,06,58,4.30
2016,04,09,06,59,4.30
2016,04,09,07,00,4.30
2016,04,09,07,01,4.40
2016,04,09,07,02,4.40
2016,04,09,07,03,4.40
2016,04,09,07,04,4.40
2016,04,09,07,05,4.40
2016,04,09,07,06,4.40
2016,04,09,07,07,4.40
2016,04,09,07,08,4.40
2016,04,09,07,09,4.40
2016,04,09,07,10,4.40
2016,04,09,07,11,4.40
2016,04,09,07,12,4.30
2016,04,09,07,13,4.30
2016,04,09,07,14,4.30
2016,04,09,07,15,4.40
2016,04,09,07,16,4.40
2016,04,09,07,17,4.40
2016,04,09,07,18,4.50
2016,04,09,07,19,4.50
2016,04,09,07,20,4.50
2016,04,09,07,21,4.50
2016,04,09,07,22,4.50
2016,04,09,07,23,4.50
2016,04,09,07,24,4.50
2016,04,09,07,25,4.50
2016,04,09,07,26,4.50
2016,04,09,07,27,4.50
2016,04,09,07,28,4.40
2016,04,09,07,29,4.40
2016,04,09,07,30,4.40
2016,04,09,07,31,4.40
2016,04,09,07,32,4.50
2016,04,09,07,33,4.50
2016,04,09,07,34,4.60
2016,04,09,07,35,4.70
2016,04,09,07,36,4.80
2016,04,09,07,37,4.90
2016,04,09,07,38,5.00
2016,04,09,07,39,5.00
2016,04,09,07,40,5.10
2016,04,09,07,41,5.10
2016,04,09,07,42,5.10
2016,04,09,07,43,5.10
2016,04,09,07,44,5.10
2016,04,09,07,45,5.10
2016,04,09,07,46,5.10
2016,04,09,07,47,5.20
2016,04,09,07,48,5.20
2016,04,09,07,49,5.20
2016,04,09,07,50,5.20
2016,04,09,07,51,5.30
2016,04,09,07,52,5.30
2016,04,09,07,53,5.40
2016,04,09,07,54,5.40
2016,04,09,07,55,5.50
2016,04,09,07,56,5.60
2016,04,09,07,57,5.60
2016,04,09,07,58,5.70
2016,04,09,07,59,5.70
2016,04,09,08,00,5.80
2016,04,09,08,01,5.90
2016,04,09,08,02,6.00
2016,04,09,08,03,6.10
2016,04,09,08,04,6.20
2016,04,09,08,05,6.30
2016,04,09,08,06,6.40
2016,04,09,08,07,6.50
2016,04,09,08,08,6.60
2016,04,09,08,09,6.80
2016,04,09,08,10,6.90
2016,04,09,08,11,7.00
2016,04,09,08,12,7.10
2016,04,09,08,13,7.30
2016,04,09,08,14,7.40
2016,04,09,08,15,7.50
2016,04,09,08,16,7.60
2016,04,09,08,17,7.70
2016,04,09,08,18,7.80
2016,04,09,08,19,7.90
2016,04,09,08,20,8.00
2016,04,09,08,21,8.00
2016,04,09,08,22,8.10
2016,04,09,08,23,8.10
2016,04,09,08,24,8.20
2016,04,09,08,25,8.30
2016,04,09,08,26,8.30
2016,04,09,08,27,8.40
2016,04,09,08,28,8.50
2016,04,09,08,29,8.50
2016,04,09,08,30,8.60
2016,04,09,08,31,8.70
2016,04,09,08,32,8.70
2016,04,09,08,33,8.80
2016,04,09,08,34,8.90
2016,04,09,08,35,8.90
2016,04,09,08,36,9.00
2016,04,09,08,37,9.00
2016,04,09,08,38,9.10
2016,04,09,08,39,9.10
2016,04,09,08,40,9.20
2016,04,09,08,41,9.20
2016,04,09,08,42,9.30
2016,04,09,08,43,9.30
2016,04,09,08,44,9.40
2016,04,09,08,45,9.40
2016,04,09,08,46,9.40
2016,04,09,08,47,9.40
2016,04,09,08,48,9.40
2016,04,09,08,49,9.50
2016,04,09,08,50,9.50
2016,04,09,08,51,9.60
2016,04,09,08,52,9.60
2016,04,09,08,53,9.60
2016,04,09,08,54,9.60
2016,04,09,08,55,9.60
2016,04,09,08,56,9.60
2016,04,09,08,57,9.70
2016,04,09,08,58,9.70
2016,04,09,08,59,9.80
2016,04,09,09,00,9.90
2016,04,09,09,01,10.00
2016,04,09,09,02,10.00
2016,04,09,09,03,10.00
2016,04,09,09,04,10.10
2016,04,09,09,05,10.10
2016,04,09,09,06,10.10
2016,04,09,09,07,10.10
2016,04,09,09,08,10.10
2016,04,09,09,09,10.10
2016,04,09,09,10,10.10
2016,04,09,09,11,10.10
2016,04,09,09,12,10.20
2016,04,09,09,13,10.20
2016,04,09,09,14,10.20
2016,04,09,09,15,10.20
2016,04,09,09,16,10.20
2016,04,09,09,17,10.20
2016,04,09,09,18,10.20
2016,04,09,09,19,10.20
2016,04,09,09,20,10.10
2016,04,09,09,21,10.10
2016,04,09,09,22,10.10
2016,04,09,09,23,10.10
2016,04,09,09,24,10.20
2016,04,09,09,25,10.20
2016,04,09,09,26,10.30
2016,04,09,09,27,10.30
2016,04,09,09,28,10.30
2016,04,09,09,29,10.30
2016,04,09,09,30,10.40
2016,04,09,09,31,10.40
2016,04,09,09,32,10.40
2016,04,09,09,33,10.40
2016,04,09,09,34,10.40
2016,04,09,09,35,10.40
2016,04,09,09,36,10.50
2016,04,09,09,37,10.60
2016,04,09,09,38,10.60
2016,04,09,09,39,10.70
2016,04,09,09,40,10.70
2016,04,09,09,41,10.80
2016,04,09,09,42,10.80
2016,04,09,09,43,10.80
2016,04,09,09,44,10.90
2016,04,09,09,45,10.90
2016,04,09,09,46,10.80
2016,04,09,09,47,10.80
2016,04,09,09,48,10.80
2016,04,09,09,49,10.80
2016,04,09,09,50,10.80
2016,04,09,09,51,10.90
2016,04,09,09,52,11.00
2016,04,09,09,53,11.00
2016,04,09,09,54,11.00
2016,04,09,09,55,11.00
2016,04,09,09,56,10.90
2016,04,09,09,57,10.90
2016,04,09,09,58,10.90
2016,04,09,09,59,11.00
2016,04,09,10,00,11.00
2016,04,09,10,01,11.10
2016,04,09,10,02,11.20
2016,04,09,10,03,11.30
2016,04,09,10,04,11.30
2016,04,09,10,05,11.40
2016,04,09,10,06,11.50
2016,04,09,10,07,11.60
2016,04,09,10,08,11.70
2016,04,09,10,09,11.80
2016,04,09,10,10,11.80
2016,04,09,10,11,11.90
2016,04,09,10,12,11.90
2016,04,09,10,13,11.90
2016,04,09,10,14,11.90
2016,04,09,10,15,12.00
2016,04,09,10,16,12.00
2016,04,09,10,17,12.00
2016,04,09,10,18,12.00
2016,04,09,10,19,12.00
2016,04,09,10,20,12.00
2016,04,09,10,21,11.90
2016,04,09,10,22,11.80
2016,04,09,10,23,11.80
2016,04,09,10,24,11.70
2016,04,09,10,25,11.70
2016,04,09,10,26,11.70
2016,04,09,10,27,11.70
2016,04,09,10,28,11.80
2016,04,09,10,29,11.80
2016,04,09,10,30,11.90
2016,04,09,10,31,11.90
2016,04,09,10,32,12.00
2016,04,09,10,33,12.10
2016,04,09,10,34,12.20
2016,04,09,10,35,12.20
2016,04,09,10,36,12.30
2016,04,09,10,37,12.30
2016,04,09,10,38,12.30
2016,04,09,10,39,12.30
2016,04,09,10,40,12.40
2016,04,09,10,41,12.40
2016,04,09,10,42,12.50
2016,04,09,10,43,12.50
2016,04,09,10,44,12.50
2016,04,09,10,45,12.40
2016,04,09,10,46,12.40
2016,04,09,10,47,12.40
2016,04,09,10,48,12.40
2016,04,09,10,49,12.50
2016,04,09,10,50,12.50
2016,04,09,10,51,12.60
2016,04,09,10,52,12.70
2016,04,09,10,53,12.80
2016,04,09,10,54,12.80
2016,04,09,10,55,12.80
2016,04,09,10,56,12.70
2016,04,09,10,57,12.70
2016,04,09,10,58,12.60
2016,04,09,10,59,12.60
2016,04,09,11,00,12.60
2016,04,09,11,01,12.60
2016,04,09,11,02,12.70
2016,04,09,11,03,12.70
2016,04,09,11,04,12.80
2016,04,09,11,05,12.80
2016,04,09,11,06,12.90
2016,04,09,11,07,13.00
2016,04,09,11,08,13.10
2016,04,09,11,09,13.00
2016,04,09,11,10,12.90
2016,04,09,11,11,12.90
2016,04,09,11,12,12.90
2016,04,09,11,13,13.00
2016,04,09,11,14,13.00
2016,04,09,11,15,13.10
2016,04,09,11,16,13.20
2016,04,09,11,17,13.30
2016,04,09,11,18,13.40
2016,04,09,11,19,13.50
2016,04,09,11,20,13.60
2016,04,09,11,21,13.70
2016,04,09,11,22,13.80
2016,04,09,11,23,13.80
2016,04,09,11,24,13.80
2016,04,09,11,25,13.70
2016,04,09,11,26,13.70
2016,04,09,11,27,13.60
2016,04,09,11,28,13.60
2016,04,09,11,29,13.50
2016,04,09,11,30,13.40
2016,04,09,11,31,13.40
2016,04,09,11,32,13.40
2016,04,09,11,33,13.50
2016,04,09,11,34,13.60
2016,04,09,11,35,13.70
2016,04,09,11,36,13.80
2016,04,09,11,37,13.90
2016,04,09,11,38,13.90
2016,04,09,11,39,13.90
2016,04,09,11,40,13.90
2016,04,09,11,41,14.00
2016,04,09,11,42,14.10
2016,04,09,11,43,14.10
2016,04,09,11,44,14.10
2016,04,09,11,45,14.10
2016,04,09,11,46,14.10
2016,04,09,11,47,14.20
2016,04,09,11,48,14.30
2016,04,09,11,49,14.40
2016,04,09,11,50,14.40
2016,04,09,11,51,14.40
2016,04,09,11,52,14.30
2016,04,09,11,53,14.20
2016,04,09,11,54,14.10
2016,04,09,11,55,14.00
2016,04,09,11,56,14.00
2016,04,09,11,57,13.90
2016,04,09,11,58,13.90
2016,04,09,11,59,14.00
2016,04,09,12,00,14.20
2016,04,09,12,01,14.30
2016,04,09,12,02,14.40
2016,04,09,12,03,14.50
2016,04,09,12,04,14.60
2016,04,09,12,05,14.60
2016,04,09,12,06,14.50
2016,04,09,12,07,14.50
2016,04,09,12,08,14.60
2016,04,09,12,09,14.60
2016,04,09,12,10,14.70
2016,04,09,12,11,14.70
2016,04,09,12,12,14.70
2016,04,09,12,13,14.80
2016,04,09,12,14,14.90
2016,04,09,12,15,14.90
2016,04,09,12,16,14.90
2016,04,09,12,17,14.80
2016,04,09,12,18,14.80
2016,04,09,12,19,14.90
2016,04,09,12,20,14.90
2016,04,09,12,21,15.00
2016,04,09,12,22,15.00
2016,04,09,12,23,15.00
2016,04,09,12,24,15.00
2016,04,09,12,25,15.00
2016,04,09,12,26,15.00
2016,04,09,12,27,15.00
2016,04,09,12,28,15.00
2016,04,09,12,29,14.90
2016,04,09,12,30,14.90
2016,04,09,12,31,14.80
2016,04,09,12,32,14.70
2016,04,09,12,33,14.60
2016,04,09,12,34,14.60
2016,04,09,12,35,14.60
2016,04,09,12,36,14.60
2016,04,09,12,37,14.60
2016,04,09,12,38,14.70
2016,04,09,12,39,14.70
2016,04,09,12,40,14.60
2016,04,09,12,41,14.60
2016,04,09,12,42,14.50
2016,04,09,12,43,14.50
2016,04,09,12,44,14.50
2016,04,09,12,45,14.60
2016,04,09,12,46,14.60
2016,04,09,12,47,14.60
2016,04,09,12,48,14.60
2016,04,09,12,49,14.60
2016,04,09,12,50,14.60
2016,04,09,12,51,14.60
2016,04,09,12,52,14.60
2016,04,09,12,53,14.60
2016,04,09,12,54,14.50
2016,04,09,12,55,14.50
2016,04,09,12,56,14.40
2016,04,09,12,57,14.40
2016,04,09,12,58,14.30
2016,04,09,12,59,14.30
2016,04,09,13,00,14.40
2016,04,09,13,01,14.40
2016,04,09,13,02,14.50
2016,04,09,13,03,14.60
2016,04,09,13,04,14.70
2016,04,09,13,05,14.80
2016,04,09,13,06,14.90
2016,04,09,13,07,14.90
2016,04,09,13,08,15.00
2016,04,09,13,09,15.00
2016,04,09,13,10,15.10
2016,04,09,13,11,15.20
2016,04,09,13,12,15.30
2016,04,09,13,13,15.20
2016,04,09,13,14,15.20
2016,04,09,13,15,15.20
2016,04,09,13,16,15.20
2016,04,09,13,17,15.20
2016,04,09,13,18,15.20
2016,04,09,13,19,15.20
2016,04,09,13,20,15.20
2016,04,09,13,21,15.20
2016,04,09,13,22,15.30
2016,04,09,13,23,15.30
2016,04,09,13,24,15.30
2016,04,09,13,25,15.30
2016,04,09,13,26,15.30
2016,04,09,13,27,15.30
2016,04,09,13,28,15.30
2016,04,09,13,29,15.30
2016,04,09,13,30,15.30
2016,04,09,13,31,15.20
2016,04,09,13,32,15.10
2016,04,09,13,33,15.10
2016,04,09,13,34,15.00
2016,04,09,13,35,15.00
2016,04,09,13,36,14.90
2016,04,09,13,37,14.90
2016,04,09,13,38,15.00
2016,04,09,13,39,15.10
2016,04,09,13,40,15.20
2016,04,09,13,41,15.30
2016,04,09,13,42,15.30
2016,04,09,13,43,15.40
2016,04,09,13,44,15.40
2016,04,09,13,45,15.40
2016,04,09,13,46,15.40
2016,04,09,13,47,15.40
2016,04,09,13,48,15.40
2016,04,09,13,49,15.50
2016,04,09,13,50,15.50
2016,04,09,13,51,15.50
2016,04,09,13,52,15.60
2016,04,09,13,53,15.60
2016,04,09,13,54,15.60
2016,04,09,13,55,15.50
2016,04,09,13,56,15.50
2016,04,09,13,57,15.50
2016,04,09,13,58,15.40
2016,04,09,13,59,15.30
2016,04,09,14,00,15.40
2016,04,09,14,01,15.40
2016,04,09,14,02,15.40
2016,04,09,14,03,15.40
2016,04,09,14,04,15.40
2016,04,09,14,05,15.50
2016,04,09,14,06,15.60
2016,04,09,14,07,15.60
2016,04,09,14,08,15.60
2016,04,09,14,09,15.60
2016,04,09,14,10,15.50
2016,04,09,14,11,15.50
2016,04,09,14,12,15.60
2016,04,09,14,13,15.70
2016,04,09,14,14,15.80
2016,04,09,14,15,15.80
2016,04,09,14,16,15.80
2016,04,09,14,17,15.70
2016,04,09,14,18,15.70
2016,04,09,14,19,15.70
2016,04,09,14,20,15.60
2016,04,09,14,21,15.70
2016,04,09,14,22,15.70
2016,04,09,14,23,15.70
2016,04,09,14,24,15.80
2016,04,09,14,25,15.70
2016,04,09,14,26,15.70
2016,04,09,14,27,15.60
2016,04,09,14,28,15.50
2016,04,09,14,29,15.50
2016,04,09,14,30,15.40
2016,04,09,14,31,15.40
2016,04,09,14,32,15.50
2016,04,09,14,33,15.60
2016,04,09,14,34,15.60
2016,04,09,14,35,15.70
2016,04,09,14,36,15.70
2016,04,09,14,37,15.80
2016,04,09,14,38,15.90
2016,04,09,14,39,15.90
2016,04,09,14,40,15.90
2016,04,09,14,41,16.00
2016,04,09,14,42,15.90
2016,04,09,14,43,15.90
2016,04,09,14,44,15.90
2016,04,09,14,45,15.90
2016,04,09,14,46,15.90
2016,04,09,14,47,16.00
2016,04,09,14,48,16.00
2016,04,09,14,49,16.10
2016,04,09,14,50,16.20
2016,04,09,14,51,16.30
2016,04,09,14,52,16.40
2016,04,09,14,53,16.40
2016,04,09,14,54,16.40
2016,04,09,14,55,16.30
2016,04,09,14,56,16.30
2016,04,09,14,57,16.30
2016,04,09,14,58,16.30
2016,04,09,14,59,16.40
2016,04,09,15,00,16.40
2016,04,09,15,01,16.50
2016,04,09,15,02,16.40
2016,04,09,15,03,16.50
2016,04,09,15,04,16.60
2016,04,09,15,05,16.60
2016,04,09,15,06,16.60
2016,04,09,15,07,16.60
2016,04,09,15,08,16.70
2016,04,09,15,09,16.70
2016,04,09,15,10,16.60
2016,04,09,15,11,16.70
2016,04,09,15,12,16.70
2016,04,09,15,13,16.70
2016,04,09,15,14,16.70
2016,04,09,15,15,16.70
2016,04,09,15,16,16.70
2016,04,09,15,17,16.70
2016,04,09,15,18,16.70
2016,04,09,15,19,16.70
2016,04,09,15,20,16.60
2016,04,09,15,21,16.60
2016,04,09,15,22,16.60
2016,04,09,15,23,16.50
2016,04,09,15,24,16.40
2016,04,09,15,25,16.50
2016,04,09,15,26,16.50
2016,04,09,15,27,16.50
2016,04,09,15,28,16.50
2016,04,09,15,29,16.40
2016,04,09,15,30,16.40
2016,04,09,15,31,16.30
2016,04,09,15,32,16.30
2016,04,09,15,33,16.30
2016,04,09,15,34,16.30
2016,04,09,15,35,16.30
2016,04,09,15,36,16.30
2016,04,09,15,37,16.30
2016,04,09,15,38,16.30
2016,04,09,15,39,16.40
2016,04,09,15,40,16.40
2016,04,09,15,41,16.50
2016,04,09,15,42,16.50
2016,04,09,15,43,16.50
2016,04,09,15,44,16.50
2016,04,09,15,45,16.50
2016,04,09,15,46,16.50
2016,04,09,15,47,16.50
2016,04,09,15,48,16.50
2016,04,09,15,49,16.50
2016,04,09,15,50,16.50
2016,04,09,15,51,16.60
2016,04,09,15,52,16.60
2016,04,09,15,53,16.60
2016,04,09,15,54,16.60
2016,04,09,15,55,16.60
2016,04,09,15,56,16.70
2016,04,09,15,57,16.70
2016,04,09,15,58,16.70
2016,04,09,15,59,16.70
2016,04,09,16,00,16.80
2016,04,09,16,01,16.80
2016,04,09,16,02,16.80
2016,04,09,16,03,16.90
2016,04,09,16,04,16.90
2016,04,09,16,05,16.90
2016,04,09,16,06,17.00
2016,04,09,16,07,17.00
2016,04,09,16,08,16.90
2016,04,09,16,09,17.00
2016,04,09,16,10,16.90
2016,04,09,16,11,16.90
2016,04,09,16,12,16.90
2016,04,09,16,13,17.00
2016,04,09,16,14,17.00
2016,04,09,16,15,17.00
2016,04,09,16,16,17.00
2016,04,09,16,17,17.10
2016,04,09,16,18,17.20
2016,04,09,16,19,17.20
2016,04,09,16,20,17.30
2016,04,09,16,21,17.30
2016,04,09,16,22,17.30
2016,04,09,16,23,17.20
2016,04,09,16,24,17.20
2016,04,09,16,25,17.10
2016,04,09,16,26,17.10
2016,04,09,16,27,17.10
2016,04,09,16,28,17.10
2016,04,09,16,29,17.20
2016,04,09,16,30,17.20
2016,04,09,16,31,17.20
2016,04,09,16,32,17.10
2016,04,09,16,33,17.10
2016,04,09,16,34,17.10
2016,04,09,16,35,17.10
2016,04,09,16,36,17.10
2016,04,09,16,37,17.10
2016,04,09,16,38,17.10
2016,04,09,16,39,17.10
2016,04,09,16,40,17.10
2016,04,09,16,41,17.10
2016,04,09,16,42,17.10
2016,04,09,16,43,17.10
2016,04,09,16,44,17.10
2016,04,09,16,45,17.10
2016,04,09,16,46,17.10
2016,04,09,16,47,17.10
2016,04,09,16,48,17.10
2016,04,09,16,49,17.10
2016,04,09,16,50,17.20
2016,04,09,16,51,17.20
2016,04,09,16,52,17.30
2016,04,09,16,53,17.30
2016,04,09,16,54,17.30
2016,04,09,16,55,17.30
2016,04,09,16,56,17.30
2016,04,09,16,57,17.30
2016,04,09,16,58,17.30
2016,04,09,16,59,17.40
2016,04,09,17,00,17.30
2016,04,09,17,01,17.30
2016,04,09,17,02,17.30
2016,04,09,17,03,17.30
2016,04,09,17,04,17.20
2016,04,09,17,05,17.20
2016,04,09,17,06,17.30
2016,04,09,17,07,17.30
2016,04,09,17,08,17.30
2016,04,09,17,09,17.30
2016,04,09,17,10,17.40
2016,04,09,17,11,17.40
2016,04,09,17,12,17.50
2016,04,09,17,13,17.50
2016,04,09,17,14,17.60
2016,04,09,17,15,17.50
2016,04,09,17,16,17.50
2016,04,09,17,17,17.50
2016,04,09,17,18,17.50
2016,04,09,17,19,17.50
2016,04,09,17,20,17.50
2016,04,09,17,21,17.60
2016,04,09,17,22,17.60
2016,04,09,17,23,17.70
2016,04,09,17,24,17.70
2016,04,09,17,25,17.70
2016,04,09,17,26,17.70
2016,04,09,17,27,17.70
2016,04,09,17,28,17.70
2016,04,09,17,29,17.60
2016,04,09,17,30,17.60
2016,04,09,17,31,17.60
2016,04,09,17,32,17.60
2016,04,09,17,33,17.50
2016,04,09,17,34,17.60
2016,04,09,17,35,17.60
2016,04,09,17,36,17.60
2016,04,09,17,37,17.60
2016,04,09,17,38,17.60
2016,04,09,17,39,17.60
2016,04,09,17,40,17.60
2016,04,09,17,41,17.60
2016,04,09,17,42,17.60